| time (UTC) | temp F | wind direction | speed MPH | gust MPH | rain 1hr in | rain 24hr in | rain mn in | humidity % | barometer mb |
| 20260507223502 | 73 | 26 | 0.0 | 0.0 | 0.00 | 0.00 | 0.00 | 50 | 1015.5 |
| 20260507223006 | 73 | 26 | 0.0 | 0.0 | 0.00 | 0.00 | 0.00 | 50 | 1015.6 |
| 20260507222501 | 72 | 27 | 0.0 | 0.0 | 0.00 | 0.00 | 0.00 | 50 | 1015.6 |
| 20260507222002 | 73 | 27 | 0.0 | 0.0 | 0.00 | 0.00 | 0.00 | 49 | 1015.6 |
| 20260507221505 | 73 | 26 | 0.0 | 0.0 | 0.00 | 0.00 | 0.00 | 47 | 1015.7 |
| 20260507220503 | 73 | 27 | 0.0 | 3.0 | 0.00 | 0.00 | 0.00 | 50 | 1015.6 |
| 20260507220007 | 73 | 27 | 0.0 | 3.0 | 0.00 | 0.00 | 0.00 | 48 | 1015.5 |
| 20260507215501 | 73 | 13 | 0.0 | 0.0 | 0.00 | 0.00 | 0.00 | 50 | 1015.8 |
| 20260507215001 | 73 | 13 | 0.0 | 0.0 | 0.00 | 0.00 | 0.00 | 49 | 1015.8 |
| 20260507214505 | 73 | 13 | 0.0 | 0.0 | 0.00 | 0.00 | 0.00 | 49 | 1015.8 |
| 20260507214002 | 73 | 13 | 0.0 | 0.0 | 0.00 | 0.00 | 0.00 | 46 | 1015.8 |
| 20260507213502 | 73 | 13 | 0.0 | 3.0 | 0.00 | 0.00 | 0.00 | 49 | 1015.9 |
| 20260507212502 | 74 | 60 | 0.0 | 1.0 | 0.00 | 0.00 | 0.00 | 48 | 1016.0 |
| 20260507212001 | 75 | 60 | 0.0 | 2.0 | 0.00 | 0.00 | 0.00 | 46 | 1016.0 |
| 20260507211505 | 75 | 61 | 0.0 | 2.0 | 0.00 | 0.00 | 0.00 | 45 | 1016.0 |
| 20260507210502 | 75 | 336 | 1.0 | 4.0 | 0.00 | 0.00 | 0.00 | 45 | 1016.2 |
| 20260507205502 | 75 | 341 | 1.0 | 5.0 | 0.00 | 0.00 | 0.00 | 45 | 1016.2 |
| 20260507205002 | 75 | 65 | 1.0 | 6.0 | 0.00 | 0.00 | 0.00 | 44 | 1016.2 |
| 20260507204505 | 75 | 23 | 0.0 | 6.0 | 0.00 | 0.00 | 0.00 | 46 | 1016.2 |
| 20260507204002 | 75 | 62 | 2.0 | 6.0 | 0.00 | 0.00 | 0.00 | 43 | 1016.2 |
| 20260507203501 | 75 | 28 | 1.0 | 4.0 | 0.00 | 0.00 | 0.00 | 46 | 1016.3 |
| 20260507203007 | 75 | 35 | 1.0 | 5.0 | 0.00 | 0.00 | 0.00 | 46 | 1016.4 |
| 20260507202502 | 75 | 48 | 1.0 | 5.0 | 0.00 | 0.00 | 0.00 | 45 | 1016.5 |
| 20260507202005 | 75 | 331 | 0.0 | 9.0 | 0.00 | 0.00 | 0.00 | 45 | 1016.5 |
| 20260507201513 | 75 | 342 | 1.0 | 9.0 | 0.00 | 0.00 | 0.00 | 44 | 1016.5 |
| 20260507201002 | 74 | 360 | 1.0 | 5.0 | 0.00 | 0.00 | 0.00 | 46 | 1016.7 |
| 20260507200501 | 74 | 51 | 1.0 | 8.0 | 0.00 | 0.00 | 0.00 | 44 | 1016.9 |
| 20260507200006 | 74 | 52 | 1.0 | 8.0 | 0.00 | 0.00 | 0.00 | 45 | 1016.8 |
| 20260507195500 | 74 | 47 | 1.0 | 8.0 | 0.00 | 0.00 | 0.00 | 47 | 1016.9 |
| 20260507195001 | 73 | 55 | 1.0 | 8.0 | 0.00 | 0.00 | 0.00 | 45 | 1016.9 |
| 20260507194000 | 74 | 51 | 0.0 | 9.0 | 0.00 | 0.00 | 0.00 | 45 | 1017.1 |
| 20260507193004 | 74 | 65 | 0.0 | 6.0 | 0.00 | 0.00 | 0.00 | 45 | 1017.0 |
| 20260507192000 | 73 | 51 | 1.0 | 6.0 | 0.00 | 0.00 | 0.00 | 44 | 1017.3 |
| 20260507191503 | 73 | 355 | 1.0 | 6.0 | 0.00 | 0.00 | 0.00 | 46 | 1017.5 |
| 20260507190502 | 74 | 40 | 0.0 | 5.0 | 0.00 | 0.00 | 0.00 | 44 | 1017.6 |
| 20260507190007 | 73 | 15 | 1.0 | 5.0 | 0.00 | 0.00 | 0.00 | 46 | 1017.6 |
| 20260507185500 | 73 | 52 | 1.0 | 5.0 | 0.00 | 0.00 | 0.00 | 45 | 1017.7 |
| 20260507185001 | 73 | 78 | 0.0 | 7.0 | 0.00 | 0.00 | 0.00 | 46 | 1017.6 |
| 20260507184000 | 73 | 338 | 0.0 | 7.0 | 0.00 | 0.00 | 0.00 | 47 | 1017.7 |
| 20260507183500 | 72 | 37 | 3.0 | 7.0 | 0.00 | 0.00 | 0.00 | 45 | 1017.8 |
| 20260507183004 | 72 | 74 | 1.0 | 6.0 | 0.00 | 0.00 | 0.00 | 45 | 1017.8 |
| 20260507182500 | 73 | 64 | 1.0 | 9.0 | 0.00 | 0.00 | 0.00 | 44 | 1017.8 |
| 20260507182001 | 72 | 96 | 2.0 | 9.0 | 0.00 | 0.00 | 0.00 | 48 | 1017.9 |
| 20260507181000 | 71 | 25 | 1.0 | 6.0 | 0.00 | 0.00 | 0.00 | 48 | 1018.2 |
| 20260507180501 | 71 | 55 | 1.0 | 6.0 | 0.00 | 0.00 | 0.00 | 47 | 1018.3 |
| 20260507180011 | 71 | 41 | 0.0 | 4.0 | 0.00 | 0.00 | 0.00 | 48 | 1018.4 |
| 20260507175000 | 70 | 53 | 0.0 | 6.0 | 0.00 | 0.00 | 0.00 | 49 | 1018.6 |
| 20260507174504 | 70 | 346 | 0.0 | 6.0 | 0.00 | 0.00 | 0.00 | 50 | 1018.9 |
| 20260507174000 | 70 | 60 | 1.0 | 6.0 | 0.00 | 0.00 | 0.00 | 49 | 1019.0 |
| 20260507173500 | 70 | 59 | 1.0 | 6.0 | 0.00 | 0.00 | 0.00 | 48 | 1019.2 |
| 20260507173005 | 70 | 82 | 1.0 | 4.0 | 0.00 | 0.00 | 0.00 | 49 | 1019.3 |
| 20260507172500 | 70 | 50 | 0.0 | 5.0 | 0.00 | 0.00 | 0.00 | 50 | 1019.4 |
| 20260507172000 | 69 | 360 | 0.0 | 5.0 | 0.00 | 0.00 | 0.00 | 51 | 1019.5 |
| 20260507171505 | 69 | 350 | 1.0 | 5.0 | 0.00 | 0.00 | 0.00 | 51 | 1019.8 |
| 20260507171000 | 69 | 51 | 0.0 | 5.0 | 0.00 | 0.00 | 0.00 | 54 | 1019.7 |
| 20260507170500 | 68 | 51 | 0.0 | 5.0 | 0.00 | 0.00 | 0.00 | 52 | 1019.8 |
| 20260507170006 | 68 | 46 | 0.0 | 2.0 | 0.00 | 0.00 | 0.00 | 53 | 1019.9 |
| 20260507165502 | 68 | 45 | 0.0 | 4.0 | 0.00 | 0.00 | 0.00 | 53 | 1019.9 |
| 20260507165000 | 67 | 39 | 0.0 | 4.0 | 0.00 | 0.00 | 0.00 | 55 | 1019.9 |
| 20260507164504 | 67 | 355 | 0.0 | 4.0 | 0.00 | 0.00 | 0.00 | 56 | 1020.0 |
| 20260507164000 | 67 | 51 | 1.0 | 4.0 | 0.00 | 0.00 | 0.00 | 55 | 1020.0 |
| 20260507163500 | 67 | 59 | 1.0 | 6.0 | 0.00 | 0.00 | 0.00 | 54 | 1020.0 |
| 20260507163004 | 67 | 21 | 0.0 | 5.0 | 0.00 | 0.00 | 0.00 | 58 | 1020.1 |
| 20260507162500 | 67 | 355 | 1.0 | 9.0 | 0.00 | 0.00 | 0.00 | 58 | 1020.1 |
| 20260507162001 | 66 | 106 | 2.0 | 9.0 | 0.00 | 0.00 | 0.00 | 58 | 1020.1 |
| 20260507161000 | 66 | 44 | 1.0 | 5.0 | 0.00 | 0.00 | 0.00 | 59 | 1020.2 |
| 20260507160501 | 67 | 53 | 1.0 | 5.0 | 0.00 | 0.00 | 0.00 | 58 | 1020.2 |
| 20260507160006 | 66 | 51 | 0.0 | 4.0 | 0.00 | 0.00 | 0.00 | 62 | 1020.1 |
| 20260507155000 | 65 | 31 | 0.0 | 4.0 | 0.00 | 0.03 | 0.00 | 65 | 1020.3 |
| 20260507154504 | 64 | 56 | 0.0 | 5.0 | 0.00 | 0.03 | 0.00 | 64 | 1020.3 |
| 20260507153501 | 64 | 331 | 0.0 | 1.0 | 0.00 | 0.03 | 0.00 | 66 | 1020.3 |
| 20260507152500 | 63 | 330 | 2.0 | 5.0 | 0.00 | 0.03 | 0.00 | 67 | 1020.5 |
| 20260507152001 | 63 | 5 | 1.0 | 5.0 | 0.00 | 0.03 | 0.00 | 68 | 1020.4 |
| 20260507151504 | 62 | 10 | 0.0 | 4.0 | 0.00 | 0.03 | 0.00 | 70 | 1020.6 |
| 20260507150500 | 61 | 71 | 0.0 | 3.0 | 0.00 | 0.03 | 0.00 | 71 | 1020.6 |
| 20260507150005 | 62 | 71 | 1.0 | 3.0 | 0.00 | 0.03 | 0.00 | 68 | 1020.7 |
| 20260507145000 | 63 | 349 | 0.0 | 1.0 | 0.00 | 0.03 | 0.00 | 69 | 1020.7 |
| 20260507143959 | 61 | 41 | 0.0 | 4.0 | 0.00 | 0.03 | 0.00 | 73 | 1020.8 |
| 20260507143500 | 60 | 60 | 1.0 | 4.0 | 0.00 | 0.03 | 0.00 | 74 | 1020.8 |
| 20260507143004 | 60 | 32 | 0.0 | 5.0 | 0.00 | 0.03 | 0.00 | 75 | 1020.8 |
| 20260507142500 | 60 | 30 | 0.0 | 5.0 | 0.00 | 0.03 | 0.00 | 75 | 1020.7 |
| 20260507141959 | 59 | 17 | 0.0 | 2.0 | 0.00 | 0.03 | 0.00 | 78 | 1020.9 |
| 20260507141504 | 59 | 25 | 0.0 | 3.0 | 0.00 | 0.03 | 0.00 | 77 | 1021.0 |
| 20260507140959 | 59 | 24 | 0.0 | 3.0 | 0.00 | 0.03 | 0.00 | 77 | 1021.0 |
| 20260507140501 | 59 | 25 | 0.0 | 2.0 | 0.00 | 0.03 | 0.00 | 77 | 1021.1 |
| 20260507140006 | 59 | 34 | 0.0 | 0.0 | 0.00 | 0.03 | 0.00 | 78 | 1021.2 |
| 20260507135500 | 58 | 33 | 0.0 | 0.0 | 0.00 | 0.03 | 0.00 | 79 | 1021.2 |
| 20260507134959 | 58 | 34 | 0.0 | 0.0 | 0.00 | 0.03 | 0.00 | 79 | 1021.1 |
| 20260507133959 | 57 | 33 | 0.0 | 0.0 | 0.00 | 0.03 | 0.00 | 81 | 1021.3 |
| 20260507133459 | 56 | 34 | 0.0 | 0.0 | 0.00 | 0.03 | 0.00 | 82 | 1021.3 |
| 20260507131959 | 55 | 33 | 0.0 | 0.0 | 0.00 | 0.03 | 0.00 | 83 | 1021.1 |
| 20260507131503 | 55 | 34 | 0.0 | 0.0 | 0.00 | 0.03 | 0.00 | 84 | 1021.2 |
| 20260507130459 | 54 | 34 | 0.0 | 2.0 | 0.00 | 0.03 | 0.00 | 83 | 1021.0 |
| 20260507130005 | 54 | 34 | 0.0 | 2.0 | 0.00 | 0.03 | 0.00 | 84 | 1021.0 |
| 20260507125459 | 53 | 34 | 0.0 | 0.0 | 0.00 | 0.03 | 0.00 | 86 | 1021.0 |
| 20260507125000 | 53 | 35 | 0.0 | 0.0 | 0.00 | 0.03 | 0.00 | 87 | 1020.9 |
| 20260507124503 | 53 | 34 | 0.0 | 0.0 | 0.00 | 0.03 | 0.00 | 87 | 1020.9 |
| 20260507123959 | 53 | 34 | 0.0 | 0.0 | 0.00 | 0.03 | 0.00 | 87 | 1020.9 |
| 20260507123459 | 52 | 34 | 0.0 | 0.0 | 0.00 | 0.03 | 0.00 | 87 | 1020.8 |
| 20260507123003 | 52 | 34 | 0.0 | 0.0 | 0.00 | 0.03 | 0.00 | 88 | 1020.7 |
| 20260507122459 | 52 | 34 | 0.0 | 0.0 | 0.00 | 0.03 | 0.00 | 88 | 1020.6 |
| 20260507121959 | 52 | 34 | 0.0 | 0.0 | 0.00 | 0.03 | 0.00 | 89 | 1020.5 |
| 20260507121502 | 52 | 34 | 0.0 | 0.0 | 0.00 | 0.03 | 0.00 | 89 | 1020.5 |
| 20260507120959 | 51 | 34 | 0.0 | 0.0 | 0.00 | 0.03 | 0.00 | 89 | 1020.4 |
| 20260507120500 | 51 | 34 | 0.0 | 0.0 | 0.00 | 0.03 | 0.00 | 89 | 1020.3 |
| 20260507120004 | 51 | 34 | 0.0 | 0.0 | 0.00 | 0.03 | 0.00 | 90 | 1020.3 |
| 20260507115458 | 51 | 34 | 0.0 | 0.0 | 0.00 | 0.03 | 0.00 | 90 | 1020.2 |
| 20260507113959 | 51 | 34 | 0.0 | 0.0 | 0.00 | 0.03 | 0.00 | 90 | 1020.3 |
| 20260507113458 | 51 | 34 | 0.0 | 0.0 | 0.00 | 0.03 | 0.00 | 89 | 1020.3 |
| 20260507113002 | 52 | 34 | 0.0 | 0.0 | 0.00 | 0.03 | 0.00 | 89 | 1020.3 |
| 20260507112458 | 52 | 34 | 0.0 | 0.0 | 0.00 | 0.03 | 0.00 | 89 | 1020.1 |
| 20260507111958 | 52 | 34 | 0.0 | 0.0 | 0.00 | 0.03 | 0.00 | 90 | 1019.9 |
| 20260507111503 | 52 | 34 | 0.0 | 0.0 | 0.00 | 0.03 | 0.00 | 90 | 1019.8 |
| 20260507110459 | 52 | 34 | 0.0 | 2.0 | 0.00 | 0.03 | 0.00 | 90 | 1020.0 |
| 20260507110004 | 51 | 36 | 0.0 | 0.0 | 0.00 | 0.03 | 0.00 | 89 | 1019.7 |
| 20260507105458 | 51 | 36 | 0.0 | 0.0 | 0.00 | 0.03 | 0.00 | 89 | 1020.0 |
| 20260507104959 | 51 | 36 | 0.0 | 0.0 | 0.00 | 0.03 | 0.00 | 89 | 1019.9 |
| 20260507104502 | 51 | 36 | 0.0 | 0.0 | 0.00 | 0.03 | 0.00 | 89 | 1019.8 |
| 20260507103959 | 51 | 36 | 0.0 | 0.0 | 0.00 | 0.03 | 0.00 | 89 | 1019.6 |
| 20260507103458 | 51 | 36 | 0.0 | 0.0 | 0.00 | 0.03 | 0.00 | 89 | 1019.5 |
| 20260507103002 | 51 | 36 | 0.0 | 0.0 | 0.00 | 0.03 | 0.00 | 89 | 1019.6 |
| 20260507102458 | 51 | 36 | 0.0 | 0.0 | 0.00 | 0.03 | 0.00 | 88 | 1019.5 |
| 20260507101959 | 52 | 36 | 0.0 | 0.0 | 0.00 | 0.03 | 0.00 | 88 | 1019.4 |
| 20260507101502 | 52 | 36 | 0.0 | 0.0 | 0.00 | 0.03 | 0.00 | 88 | 1019.2 |
| 20260507100959 | 52 | 36 | 0.0 | 0.0 | 0.00 | 0.03 | 0.00 | 88 | 1019.1 |
| 20260507100458 | 52 | 36 | 0.0 | 0.0 | 0.00 | 0.03 | 0.00 | 88 | 1018.9 |
| 20260507100004 | 52 | 36 | 0.0 | 0.0 | 0.00 | 0.03 | 0.00 | 88 | 1018.9 |
| 20260507095459 | 52 | 36 | 0.0 | 0.0 | 0.00 | 0.03 | 0.00 | 88 | 1018.6 |
| 20260507094958 | 52 | 36 | 0.0 | 0.0 | 0.00 | 0.03 | 0.00 | 87 | 1018.6 |
| 20260507094502 | 53 | 36 | 0.0 | 0.0 | 0.00 | 0.03 | 0.00 | 87 | 1018.6 |
| 20260507093002 | 53 | 36 | 0.0 | 0.0 | 0.00 | 0.03 | 0.00 | 87 | 1018.6 |
| 20260507092500 | 53 | 36 | 0.0 | 0.0 | 0.00 | 0.03 | 0.00 | 87 | 1018.5 |
| 20260507091958 | 53 | 36 | 0.0 | 0.0 | 0.00 | 0.03 | 0.00 | 87 | 1018.5 |
| 20260507090958 | 53 | 36 | 0.0 | 0.0 | 0.00 | 0.03 | 0.00 | 87 | 1018.5 |
| 20260507090458 | 53 | 36 | 0.0 | 0.0 | 0.00 | 0.03 | 0.00 | 86 | 1018.5 |
| 20260507090005 | 53 | 36 | 0.0 | 0.0 | 0.00 | 0.03 | 0.00 | 86 | 1018.5 |
| 20260507085459 | 53 | 36 | 0.0 | 0.0 | 0.00 | 0.03 | 0.00 | 86 | 1018.5 |
| 20260507084502 | 54 | 36 | 0.0 | 0.0 | 0.00 | 0.03 | 0.00 | 85 | 1018.5 |
| 20260507083958 | 54 | 36 | 0.0 | 0.0 | 0.00 | 0.03 | 0.00 | 85 | 1018.5 |
| 20260507083459 | 54 | 36 | 0.0 | 0.0 | 0.00 | 0.03 | 0.00 | 84 | 1018.6 |
| 20260507083002 | 54 | 36 | 0.0 | 0.0 | 0.00 | 0.03 | 0.00 | 84 | 1018.5 |
| 20260507082458 | 55 | 36 | 0.0 | 0.0 | 0.00 | 0.03 | 0.00 | 84 | 1018.6 |
| 20260507081958 | 55 | 36 | 0.0 | 1.0 | 0.00 | 0.03 | 0.00 | 83 | 1018.4 |
| 20260507081502 | 55 | 36 | 0.0 | 1.0 | 0.00 | 0.03 | 0.00 | 84 | 1018.4 |
| 20260507080958 | 55 | 38 | 0.0 | 0.0 | 0.00 | 0.03 | 0.00 | 84 | 1018.4 |
| 20260507080459 | 55 | 37 | 0.0 | 0.0 | 0.00 | 0.03 | 0.00 | 83 | 1018.4 |
| 20260507080005 | 55 | 37 | 0.0 | 1.0 | 0.00 | 0.03 | 0.00 | 83 | 1018.3 |
| 20260507075459 | 55 | 38 | 0.0 | 1.0 | 0.00 | 0.03 | 0.00 | 83 | 1018.3 |
| 20260507074959 | 55 | 38 | 0.0 | 1.0 | 0.00 | 0.03 | 0.00 | 83 | 1018.3 |
| 20260507074502 | 55 | 37 | 0.0 | 0.0 | 0.00 | 0.03 | 0.00 | 83 | 1018.2 |
| 20260507073958 | 55 | 37 | 0.0 | 0.0 | 0.00 | 0.03 | 0.00 | 84 | 1018.2 |
| 20260507073001 | 55 | 38 | 0.0 | 0.0 | 0.00 | 0.03 | 0.00 | 83 | 1017.9 |
| 20260507072500 | 55 | 37 | 0.0 | 0.0 | 0.00 | 0.03 | 0.00 | 83 | 1018.1 |
| 20260507071958 | 55 | 38 | 0.0 | 2.0 | 0.00 | 0.03 | 0.00 | 82 | 1018.2 |
| 20260507071000 | 55 | 37 | 0.0 | 0.0 | 0.00 | 0.03 | 0.00 | 81 | 1018.2 |
| 20260507070458 | 56 | 37 | 0.0 | 0.0 | 0.00 | 0.03 | 0.00 | 81 | 1018.3 |
| 20260507065458 | 56 | 38 | 0.0 | 1.0 | 0.00 | 0.03 | 0.00 | 80 | 1018.3 |
| 20260507064957 | 56 | 37 | 0.0 | 1.0 | 0.00 | 0.03 | 0.00 | 79 | 1018.2 |
| 20260507064501 | 57 | 38 | 0.0 | 1.0 | 0.00 | 0.03 | 0.00 | 79 | 1018.3 |
| 20260507063958 | 57 | 38 | 0.0 | 2.0 | 0.00 | 0.03 | 0.00 | 79 | 1018.3 |
| 20260507063457 | 57 | 46 | 0.0 | 2.0 | 0.00 | 0.03 | 0.00 | 78 | 1018.2 |
| 20260507062458 | 57 | 47 | 0.0 | 2.0 | 0.00 | 0.03 | 0.00 | 78 | 1018.1 |
| 20260507061957 | 57 | 51 | 0.0 | 1.0 | 0.00 | 0.03 | 0.00 | 78 | 1018.0 |
| 20260507061501 | 57 | 51 | 0.0 | 2.0 | 0.00 | 0.03 | 0.00 | 78 | 1018.0 |
| 20260507060957 | 57 | 51 | 0.0 | 0.0 | 0.00 | 0.03 | 0.00 | 78 | 1017.8 |
| 20260507060457 | 57 | 51 | 0.0 | 0.0 | 0.00 | 0.03 | 0.00 | 78 | 1017.9 |
| 20260507060010 | 57 | 51 | 0.0 | 0.0 | 0.00 | 0.03 | 0.00 | 78 | 1017.9 |
| 20260507055504 | 57 | 51 | 0.0 | 0.0 | 0.00 | 0.03 | 0.00 | 78 | 1017.8 |
| 20260507055004 | 57 | 51 | 0.0 | 3.0 | 0.00 | 0.03 | 0.00 | 77 | 1017.6 |
| 20260507054509 | 57 | 51 | 0.0 | 3.0 | 0.00 | 0.03 | 0.00 | 77 | 1017.6 |
| 20260507054003 | 57 | 53 | 1.0 | 3.0 | 0.00 | 0.03 | 0.00 | 77 | 1017.6 |
| 20260507053503 | 57 | 53 | 0.0 | 3.0 | 0.00 | 0.03 | 0.00 | 76 | 1017.5 |
| 20260507053007 | 57 | 51 | 0.0 | 3.0 | 0.00 | 0.03 | 0.00 | 76 | 1017.4 |
| 20260507052503 | 58 | 68 | 0.0 | 3.0 | 0.00 | 0.03 | 0.00 | 76 | 1017.5 |
| 20260507052004 | 58 | 60 | 0.0 | 3.0 | 0.00 | 0.03 | 0.00 | 76 | 1017.5 |
| 20260507051508 | 58 | 57 | 0.0 | 6.0 | 0.00 | 0.03 | 0.00 | 75 | 1017.6 |
| 20260507051004 | 58 | 46 | 0.0 | 6.0 | 0.00 | 0.03 | 0.00 | 75 | 1017.6 |
| 20260507050504 | 58 | 48 | 0.0 | 4.0 | 0.00 | 0.03 | 0.00 | 75 | 1017.6 |
| 20260507050011 | 58 | 52 | 0.0 | 4.0 | 0.00 | 0.03 | 0.00 | 75 | 1017.6 |
| 20260507045504 | 58 | 76 | 0.0 | 2.0 | 0.00 | 0.03 | 0.03 | 75 | 1017.7 |
| 20260507045004 | 58 | 76 | 0.0 | 1.0 | 0.00 | 0.03 | 0.03 | 75 | 1017.7 |
| 20260507044507 | 58 | 75 | 0.0 | 3.0 | 0.00 | 0.03 | 0.03 | 74 | 1017.8 |
| 20260507044003 | 58 | 78 | 0.0 | 3.0 | 0.00 | 0.03 | 0.03 | 74 | 1017.8 |
| 20260507043504 | 58 | 71 | 0.0 | 3.0 | 0.00 | 0.03 | 0.03 | 74 | 1017.9 |
| 20260507043006 | 59 | 65 | 0.0 | 4.0 | 0.00 | 0.03 | 0.03 | 73 | 1017.9 |
| 20260507042503 | 59 | 65 | 0.0 | 4.0 | 0.00 | 0.03 | 0.03 | 73 | 1017.9 |
| 20260507042003 | 59 | 51 | 0.0 | 7.0 | 0.00 | 0.03 | 0.03 | 73 | 1017.9 |
| 20260507041506 | 59 | 134 | 0.0 | 7.0 | 0.00 | 0.03 | 0.03 | 73 | 1017.9 |
| 20260507040009 | 59 | 79 | 1.0 | 6.0 | 0.00 | 0.03 | 0.03 | 72 | 1017.9 |
| 20260507035503 | 60 | 61 | 0.0 | 6.0 | 0.00 | 0.03 | 0.03 | 71 | 1018.0 |
| 20260507035003 | 60 | 72 | 0.0 | 5.0 | 0.00 | 0.03 | 0.03 | 72 | 1018.0 |
| 20260507034003 | 60 | 76 | 1.0 | 7.0 | 0.00 | 0.03 | 0.03 | 72 | 1018.1 |
| 20260507033503 | 60 | 53 | 0.0 | 7.0 | 0.00 | 0.03 | 0.03 | 71 | 1018.0 |
| 20260507032504 | 60 | 45 | 1.0 | 9.0 | 0.00 | 0.03 | 0.03 | 71 | 1017.9 |
| 20260507032003 | 60 | 63 | 1.0 | 8.0 | 0.00 | 0.03 | 0.03 | 71 | 1017.9 |
| 20260507031506 | 60 | 56 | 0.0 | 8.0 | 0.00 | 0.03 | 0.03 | 71 | 1018.0 |
| 20260507031003 | 60 | 57 | 1.0 | 9.0 | 0.00 | 0.03 | 0.03 | 71 | 1018.0 |
| 20260507030503 | 60 | 69 | 2.0 | 9.0 | 0.00 | 0.03 | 0.03 | 70 | 1017.7 |
| 20260507025002 | 60 | 66 | 2.0 | 10.0 | 0.00 | 0.03 | 0.03 | 71 | 1017.5 |
| 20260507024506 | 60 | 49 | 1.0 | 6.0 | 0.00 | 0.03 | 0.03 | 71 | 1017.4 |
| 20260507024002 | 60 | 53 | 1.0 | 10.0 | 0.00 | 0.03 | 0.03 | 71 | 1017.5 |
| 20260507023502 | 60 | 67 | 2.0 | 12.0 | 0.00 | 0.03 | 0.03 | 71 | 1017.3 |
| 20260507023005 | 61 | 61 | 1.0 | 12.0 | 0.00 | 0.03 | 0.03 | 71 | 1017.2 |
| 20260507022502 | 61 | 38 | 1.0 | 9.0 | 0.00 | 0.03 | 0.03 | 71 | 1017.1 |
| 20260507022003 | 61 | 60 | 1.0 | 17.0 | 0.00 | 0.03 | 0.03 | 71 | 1017.0 |
| 20260507021506 | 61 | 19 | 2.0 | 17.0 | 0.00 | 0.03 | 0.03 | 70 | 1017.0 |
| 20260507021002 | 61 | 57 | 2.0 | 7.0 | 0.00 | 0.03 | 0.03 | 71 | 1016.9 |
| 20260507020502 | 61 | 36 | 2.0 | 6.0 | 0.00 | 0.03 | 0.03 | 70 | 1016.9 |
| 20260507020009 | 61 | 64 | 2.0 | 12.0 | 0.00 | 0.03 | 0.03 | 71 | 1016.8 |
| 20260507015502 | 61 | 36 | 3.0 | 12.0 | 0.00 | 0.03 | 0.03 | 71 | 1016.6 |
| 20260507014505 | 62 | 21 | 3.0 | 9.0 | 0.00 | 0.03 | 0.03 | 71 | 1016.2 |
| 20260507014002 | 62 | 53 | 2.0 | 6.0 | 0.00 | 0.03 | 0.03 | 71 | 1016.0 |
| 20260507013503 | 62 | 23 | 1.0 | 5.0 | 0.00 | 0.03 | 0.03 | 72 | 1015.9 |
| 20260507013005 | 62 | 5 | 0.0 | 9.0 | 0.00 | 0.03 | 0.03 | 72 | 1015.8 |
| 20260507012503 | 62 | 21 | 3.0 | 9.0 | 0.00 | 0.03 | 0.03 | 72 | 1015.6 |
| 20260507011507 | 62 | 5 | 2.0 | 9.0 | 0.00 | 0.03 | 0.03 | 72 | 1015.5 |
| 20260507011004 | 62 | 34 | 1.0 | 11.0 | 0.00 | 0.03 | 0.03 | 71 | 1015.5 |
| 20260507010502 | 62 | 14 | 2.0 | 11.0 | 0.00 | 0.03 | 0.03 | 71 | 1015.3 |
| 20260507010008 | 62 | 49 | 1.0 | 9.0 | 0.00 | 0.03 | 0.03 | 72 | 1015.3 |
| 20260507005502 | 63 | 326 | 2.0 | 9.0 | 0.00 | 0.03 | 0.03 | 71 | 1015.3 |
| 20260507005002 | 63 | 337 | 1.0 | 7.0 | 0.00 | 0.03 | 0.03 | 71 | 1015.3 |
| 20260507004506 | 63 | 330 | 1.0 | 8.0 | 0.00 | 0.03 | 0.03 | 70 | 1015.2 |
| 20260507004002 | 63 | 37 | 2.0 | 6.0 | 0.00 | 0.03 | 0.03 | 71 | 1015.1 |
| 20260507003504 | 63 | 54 | 1.0 | 6.0 | 0.00 | 0.03 | 0.03 | 71 | 1015.1 |
| 20260507002502 | 63 | 37 | 1.0 | 8.0 | 0.00 | 0.03 | 0.03 | 70 | 1014.9 |
| 20260507002002 | 63 | 51 | 1.0 | 7.0 | 0.00 | 0.03 | 0.03 | 71 | 1014.9 |
| 20260507001506 | 63 | 51 | 1.0 | 7.0 | 0.00 | 0.03 | 0.03 | 70 | 1015.0 |
| 20260507001002 | 63 | 56 | 1.0 | 6.0 | 0.00 | 0.03 | 0.03 | 71 | 1014.8 |
| 20260507000006 | 63 | 51 | 1.0 | 7.0 | 0.00 | 0.03 | 0.03 | 70 | 1014.6 |
| 20260506235001 | 64 | 75 | 1.0 | 6.0 | 0.00 | 0.03 | 0.03 | 70 | 1014.6 |
| 20260506234504 | 64 | 48 | 1.0 | 5.0 | 0.00 | 0.03 | 0.03 | 70 | 1014.6 |
| 20260506233501 | 64 | 60 | 2.0 | 9.0 | 0.00 | 0.03 | 0.03 | 70 | 1014.5 |
| 20260506232501 | 64 | 5 | 3.0 | 9.0 | 0.00 | 0.03 | 0.03 | 70 | 1014.4 |
| 20260506232000 | 64 | 52 | 1.0 | 9.0 | 0.00 | 0.03 | 0.03 | 70 | 1014.4 |
| 20260506231507 | 64 | 25 | 2.0 | 9.0 | 0.00 | 0.03 | 0.03 | 70 | 1014.4 |
| 20260506231001 | 64 | 55 | 3.0 | 9.0 | 0.00 | 0.03 | 0.03 | 70 | 1014.4 |
| 20260506230502 | 64 | 41 | 1.0 | 10.0 | 0.00 | 0.03 | 0.03 | 70 | 1014.3 |
| 20260506225502 | 65 | 63 | 1.0 | 10.0 | 0.00 | 0.03 | 0.03 | 70 | 1014.1 |
| 20260506225002 | 65 | 57 | 0.0 | 5.0 | 0.00 | 0.03 | 0.03 | 70 | 1014.1 |
| 20260506224505 | 65 | 40 | 0.0 | 10.0 | 0.00 | 0.03 | 0.03 | 70 | 1014.2 |
| 20260506224002 | 65 | 37 | 2.0 | 10.0 | 0.00 | 0.03 | 0.03 | 68 | 1014.1 |